Weather History for KVUO - November, 2013

Change the Weather History Date:

Tuesday, November 19, 2013

  Actual Average Record
Temperature  
Mean Temperature 44 °F 46 °F  
Max Temperature 54 °F 52 °F 61 °F (1965)
Min Temperature 34 °F 39 °F 22 °F (2000)
Degree Days  
Heating Degree Days 21    
Month to date heating degree days 313  
Since 1 July heating degree days 807  
Cooling Degree Days 0    
Month to date cooling degree days 0  
Year to date cooling degree days 450  
Moisture  
Dew Point 42 °F    
Average Humidity 77    
Maximum Humidity 93    
Minimum Humidity 61    
Precipitation  
Precipitation 0.20 in 0.20 in 3.32 in (1996)
Month to date precipitation 2.68 3.52  
Year to date precipitation 24.87 29.98  
Snow  
Snow 0.00 in - - ()
Month to date snowfall 0.0  
Since 1 July snowfall 0.0  
Since 1 September snowfall 0.0  
Snow Depth 0.00 in    
Sea Level Pressure  
Sea Level Pressure 29.83 in    
Wind  
Wind Speed 6 mph (NW)    
Max Wind Speed 15 mph    
Max Gust Speed 22 mph    
Visibility 9 miles    
Events Rain    
T = Trace of Precipitation, MM = Missing Value Source: NWS Daily Summary

Daily Weather History Graph

Daily Weather History Graph

Search for Another Location

Airport or City:

Trip Planner

Search our weather history database for the weather conditions in past years. The results will help you decide how hot, cold, wet, or windy it might be!

Date:

Astronomy

Nov. 19, 2013 Rise Set
Actual Time 7:15 AM PST 4:35 PM PST
Civil Twilight 6:43 AM PST 5:08 PM PST
Nautical Twilight 6:07 AM PST 5:44 PM PST
Astronomical Twilight 5:31 AM PST 6:19 PM PST
Moon 6:30 PM PST (11/19) 9:00 AM PST (11/19)
Length of Visible Light 10h 25m
Length of Day
9h 19m
Waning Gibbous, 95% of the Moon is Illuminated
Nov 19
Waning Gibbous
Nov 25
Last Quarter
Dec 2
New
Dec 9
First Quarter
Dec 17
Full

Hourly Weather History & Observations

Time (PST) Temp. Windchill Dew Point Humidity Pressure Visibility Wind Dir Wind Speed Gust Speed Precip Events Conditions
12:53 AM 54.0 °F - 48.9 °F 83% 29.73 in 10.0 mi South 9.2 mph 23.0 mph N/A   Overcast
1:53 AM 53.1 °F - 48.9 °F 86% 29.73 in 10.0 mi SSW 10.4 mph 17.3 mph N/A   Overcast
2:53 AM 53.1 °F - 48.9 °F 86% 29.72 in 10.0 mi Variable 5.8 mph - N/A   Overcast
3:53 AM 53.1 °F - 50.0 °F 89% 29.72 in 10.0 mi SSW 5.8 mph - N/A   Overcast
4:53 AM 53.1 °F - 50.0 °F 89% 29.71 in 10.0 mi SSW 9.2 mph - 0.03 in Rain Light Rain
5:53 AM 53.1 °F - 50.0 °F 89% 29.71 in 9.0 mi SW 6.9 mph - 0.01 in Rain Light Rain
6:08 AM 53.1 °F - 50.0 °F 89% 29.71 in 7.0 mi SSW 4.6 mph - 0.01 in Rain Light Rain
6:35 AM 53.1 °F - 50.0 °F 89% 29.72 in 5.0 mi West 4.6 mph - 0.06 in Rain Light Rain
6:53 AM 53.1 °F - 51.1 °F 93% 29.73 in 5.0 mi NNW 6.9 mph - 0.08 in Rain Light Rain
7:24 AM 52.0 °F - 50.0 °F 93% 29.75 in 4.0 mi North 9.2 mph - 0.03 in Rain Light Rain
7:30 AM 50.0 °F - 48.0 °F 93% 29.75 in 5.0 mi North 8.1 mph - 0.03 in Rain Light Rain
7:53 AM 48.9 °F - 46.0 °F 90% 29.76 in 6.0 mi North 8.1 mph - 0.04 in Rain Light Rain
8:53 AM 48.0 °F - 44.1 °F 86% 29.78 in 6.0 mi NNW 6.9 mph - 0.03 in Rain Light Rain
9:53 AM 48.9 °F - 45.0 °F 86% 29.81 in 10.0 mi NNW 4.6 mph - 0.01 in   Overcast
10:53 AM 50.0 °F - 45.0 °F 83% 29.83 in 10.0 mi NNW 9.2 mph - N/A   Overcast
11:12 AM 50.0 °F - 44.1 °F 80% 29.83 in 10.0 mi North 6.9 mph 19.6 mph N/A   Overcast
11:53 AM 50.0 °F - 43.0 °F 77% 29.85 in 10.0 mi NNW 8.1 mph - N/A   Overcast
12:03 PM 50.0 °F - 42.1 °F 74% 29.85 in 10.0 mi NNW 8.1 mph - N/A   Overcast
12:53 PM 50.0 °F - 41.0 °F 71% 29.86 in 10.0 mi NNW 6.9 mph - N/A   Overcast
1:53 PM 50.0 °F - 37.9 °F 63% 29.86 in 10.0 mi North 6.9 mph - N/A   Overcast
2:53 PM 48.9 °F - 37.9 °F 66% 29.86 in 10.0 mi Variable 4.6 mph - N/A   Overcast
3:53 PM 48.9 °F - 37.0 °F 64% 29.87 in 10.0 mi NNW 5.8 mph - N/A   Overcast
4:53 PM 46.9 °F - 36.0 °F 66% 29.89 in 10.0 mi NW 6.9 mph - N/A   Overcast
5:53 PM 46.0 °F 42.5 °F 37.0 °F 71% 29.91 in 10.0 mi Variable 6.9 mph - N/A   Mostly Cloudy
6:53 PM 45.0 °F 42.6 °F 36.0 °F 71% 29.92 in 10.0 mi NNW 4.6 mph - N/A   Overcast
7:53 PM 43.0 °F 38.2 °F 33.1 °F 68% 29.94 in 10.0 mi NW 8.1 mph - N/A   Clear
8:53 PM 41.0 °F 38.0 °F 30.0 °F 65% 29.97 in 10.0 mi NW 4.6 mph - N/A   Clear
9:53 PM 39.9 °F 37.8 °F 30.0 °F 68% 30.00 in 10.0 mi NNW 3.5 mph - N/A   Clear
10:53 PM 39.0 °F - 28.9 °F 67% 30.02 in 10.0 mi Calm Calm - N/A   Clear
11:53 PM 35.1 °F - 28.0 °F 76% 30.04 in 10.0 mi Calm Calm - N/A   Clear